{"data":{"norad_id":61906,"intl_designator":"2024-205N","name":"2024-205N","alt_names":[],"object_type":"PAYLOAD","status":"ACTIVE","operator":null,"country":"PRC","launch_date":"2024-11-11","launch_site_code":"JSC","launch_vehicle":null,"mission":null,"orbit_class":"UNKNOWN","rcs_meters":null,"size_class":null,"mass_kg":null,"dimensions":null,"purposes":[],"wikipedia_slug":null,"has_3d_model":false,"image_url":null,"decayed_at":null,"tle_current":{"epoch":"2026-05-25T04:30:56.956608Z","epoch_age_seconds":54998,"freshness":"FRESH","line1":"1 61906U 24205N   26145.18815922  .00020081  00000+0  55696-3 0  9993","line2":"2 61906  97.4163 225.7003 0010508 116.9912 243.2407 15.36908207 85349","mean_motion":15.36908207,"eccentricity":0.0010508,"inclination_deg":97.4163,"raan_deg":225.7003,"arg_perigee_deg":116.9912,"mean_anomaly_deg":243.2407,"bstar":0.00055696,"rev_number":8534,"period_min":93.694600200674,"perigee_km":448.07792889262,"apogee_km":462.43899279313,"semimajor_km":6833.3954608429,"source":"CELESTRAK","updated_at":"2026-05-25T13:38:02.628253Z"}}}